[[{"header":{"parameterUnit":"m.s-1","parameterCategory":1,"la1":30.2992,"la2":30.254,"lo1":-89.0895,"lo2":-89.0443,"dy":0.0025,"dx":0.0025,"nx":19,"ny":19,"refTime":"2026-03-14T21:00:00:Z","depth":0,"parameterNumber":2,"parameterNumberName":"U-component_of_WINDS"},"data":[0,0,0,3.0402,3.0407,3.0627,3.0628,3.0909,3.0911,0,0,0,0,0,0,0,0,0,0,0,3.0335,3.0336,3.0402,3.0407,3.0627,3.0628,3.0908,3.0911,0,0,0,0,0,0,0,0,0,0,0,3.0334,3.0336,3.0338,3.0408,3.0627,3.0628,3.0908,3.0743,0,0,0,0,0,0,0,0,0,0,3.053,3.0464,3.0335,3.0338,3.0409,3.0626,3.0628,3.0735,3.0753,3.0808,0,3.0854,0,3.0887,3.093,3.0931,0,0,0,3.041,3.0448,3.051,3.0338,3.0411,3.0626,3.0529,3.0745,3.0766,3.0832,3.0858,3.0869,3.0892,3.0932,3.0933,3.1235,3.1236,0,0,3.0398,3.0374,3.0495,3.0523,3.0486,3.0522,3.0535,3.0758,3.0785,3.0859,3.0876,3.0896,3.0934,3.0936,3.1234,3.1235,0,0,0,3.0361,3.0365,3.0421,3.0511,3.0551,3.0528,3.0544,3.0776,3.0796,3.0879,3.09,3.0935,3.0939,3.1232,3.1234,3.1271,0,0,0,3.0354,3.0343,3.0415,3.0403,3.0546,3.0665,3.0557,3.078,3.0806,3.0898,3.0935,3.0941,3.1231,3.1233,3.1267,3.1293,0,0,0,3.0321,3.034,3.037,3.0401,3.0494,3.0662,3.0695,3.0786,3.0819,3.0931,3.0942,3.123,3.1233,3.1263,3.1287,3.1364,0,0,0,3.028,3.0402,3.037,3.0515,3.0492,3.0682,3.0694,3.0838,3.0939,3.0937,3.1231,3.1234,3.1262,3.1284,3.136,3.1423,3.1447,0,0,3.0421,3.0418,3.0506,3.0483,3.0673,3.0651,3.0848,3.0965,3.1,3.1155,3.1163,3.1268,3.1287,3.1363,3.1592,3.1611,0,0,0,3.0542,3.0604,3.066,3.0753,3.0843,3.0923,3.1012,3.1056,3.1188,3.1074,3.1318,3.133,3.1376,3.1407,3.1423,3.1464,3.1247,3.1247,3.1247,3.0707,3.0742,3.0888,3.095,3.104,3.1129,3.1206,3.128,3.1293,3.1349,3.1396,3.153,3.1566,3.1578,3.162,3.1432,3.1433,3.1433,3.1433,3.0916,3.1009,3.1019,3.1164,3.1201,3.1325,3.1416,3.142,3.1542,3.1498,3.1541,3.1489,3.1597,3.1636,3.1436,3.1436,3.1435,3.1435,3.1435,3.1027,3.1078,3.1126,3.1263,3.1365,3.1424,3.1539,3.157,3.16,3.1642,3.1693,3.1693,3.1696,3.1664,3.1664,3.1665,3.1665,3.1666,3.1666,3.1123,3.1176,3.1268,3.1372,3.1435,3.1522,3.1612,3.1676,3.1755,3.1768,3.1769,3.1774,3.1601,3.1556,3.1673,3.1672,3.1671,3.167,3.167,3.1321,3.128,3.1422,3.1484,3.1609,3.1708,3.1745,3.1871,3.1929,3.1984,3.1981,3.1848,3.1849,3.1836,3.1799,3.1973,3.1973,3.1973,3.1973,3.1414,3.1417,3.1567,3.1665,3.1765,3.1812,3.1972,3.2043,3.2111,3.2149,3.2129,3.2082,3.2068,3.2078,3.206,3.2026,3.2254,3.2254,3.2254,3.1537,3.1551,3.168,3.1743,3.1842,3.1927,3.2079,3.2192,3.2261,3.2266,3.2179,3.2167,3.2093,3.2068,3.207,3.2042,3.198,0,0]},{"header":{"parameterUnit":"m.s-1","parameterCategory":1,"la1":30.2992,"la2":30.254,"lo1":-89.0895,"lo2":-89.0443,"dy":0.0025,"dx":0.0025,"nx":19,"ny":19,"refTime":"2026-03-14T21:00:00:Z","depth":0,"parameterNumber":3,"parameterNumberName":"V-component_of_WINDS"},"data":[0,0,0,4.7457,4.7462,4.7683,4.7684,4.7943,4.7945,0,0,0,0,0,0,0,0,0,0,0,4.7382,4.7384,4.7457,4.7462,4.7683,4.7684,4.7943,4.7945,0,0,0,0,0,0,0,0,0,0,0,4.7381,4.7383,4.7385,4.7463,4.7683,4.7684,4.7942,4.7783,0,0,0,0,0,0,0,0,0,0,4.7572,4.7494,4.7383,4.7385,4.7464,4.7682,4.7684,4.7775,4.7793,4.7835,0,4.7873,0,4.7913,4.7962,4.7962,0,0,0,4.7468,4.748,4.7549,4.7385,4.7466,4.7682,4.7585,4.7785,4.7805,4.7857,4.7877,4.7887,4.7918,4.7963,4.7964,4.8193,4.8193,0,0,4.7456,4.7416,4.7535,4.7561,4.753,4.7578,4.7592,4.7797,4.7815,4.7878,4.7893,4.7922,4.7965,4.7967,4.8192,4.8193,0,0,0,4.7417,4.7407,4.7471,4.755,4.7591,4.7584,4.76,4.7805,4.783,4.7896,4.7925,4.7966,4.7969,4.8191,4.8192,4.8192,0,0,0,4.741,4.7384,4.7465,4.7443,4.7587,4.7702,4.7603,4.7816,4.784,4.7924,4.7966,4.7972,4.819,4.8192,4.819,4.8197,0,0,0,4.7371,4.738,4.7409,4.744,4.7535,4.77,4.7736,4.7822,4.7857,4.7963,4.7972,4.819,4.8192,4.8189,4.8195,4.8244,0,0,0,4.7317,4.7405,4.7408,4.7518,4.7532,4.7699,4.7735,4.7861,4.7952,4.7967,4.8191,4.8192,4.8188,4.8193,4.8242,4.8277,4.8288,0,0,4.7406,4.7414,4.7482,4.7491,4.7648,4.7669,4.7824,4.7943,4.7988,4.8121,4.8127,4.819,4.8195,4.8243,4.837,4.8379,0,0,0,4.7496,4.7544,4.7594,4.768,4.7775,4.7855,4.7955,4.7999,4.8114,4.805,4.8224,4.8227,4.8258,4.8276,4.8283,4.831,4.82,4.8199,4.8199,4.7563,4.7618,4.7731,4.7812,4.7894,4.7996,4.8066,4.8141,4.8172,4.8212,4.8251,4.8321,4.8341,4.8347,4.8375,4.8275,4.8275,4.8275,4.8275,4.7695,4.777,4.7809,4.7933,4.7989,4.8092,4.8192,4.821,4.8311,4.8297,4.8326,4.8304,4.8355,4.8382,4.8276,4.8276,4.8276,4.8276,4.8276,4.7743,4.7788,4.7842,4.797,4.8061,4.8138,4.8234,4.8281,4.8326,4.8355,4.8399,4.8399,4.8403,4.8373,4.8373,4.8373,4.8374,4.8374,4.8374,4.7771,4.7831,4.7908,4.8015,4.8075,4.8159,4.8261,4.8319,4.8396,4.8422,4.8423,4.8446,4.8352,4.8325,4.8378,4.8377,4.8377,4.8376,4.8376,4.7881,4.7864,4.7982,4.8042,4.817,4.8255,4.8315,4.8429,4.8485,4.8529,4.8547,4.8471,4.8482,4.8476,4.8454,4.8537,4.8537,4.8537,4.8537,4.7919,4.7931,4.8062,4.8153,4.8249,4.8314,4.8441,4.8519,4.8597,4.8633,4.8628,4.8604,4.8597,4.8612,4.8604,4.8584,4.8698,4.8698,4.8699,4.7989,4.8011,4.8112,4.8192,4.8294,4.838,4.85,4.86,4.8684,4.8706,4.8662,4.8655,4.8617,4.8603,4.8622,4.8607,4.8572,0,0]}]]